Location: Unspecified
(43.4680°N, 87.1740°E)
Time: 21:32:11
(UTC+00:00)

RESURS DK-1 - Pass Details

Date: 17 April 2021
Orbit: 553 x 563 km, 69.9° (Epoch: 11 May)

Event Time Altitude Azimuth Distance (km) Brightness Sun altitude
Rises 13:52:16 0° 179° (S) 2,719 5.6 -10.2°
Reaches altitude 10° 13:54:39 10° 169° (SSE) 1,832 4.6 -10.6°
Maximum altitude 13:58:13 29° 108° (ESE) 1,026 3.1 -11.2°
Drops below altitude 10° 14:01:49 10° 47° (NE) 1,850 4.8 -11.8°
Sets 14:04:13 0° 37° (NE) 2,752 5.8 -12.2°
